KG4QXF Weather Reports


time (UTC)temp
C
wind
direction
speed
KPH
gust
KPH
rain 1hr
cm
rain 24hr
cm
rain mn
cm
humidity
%
barometer
mb
20260509162128 24 139 4.8 9.7 0.00 0.00 0.00 78 1014.8
20260509161625 24 164 1.6 9.7 0.00 0.00 0.00 77 1015.0
20260509161120 24 175 0.0 3.2 0.00 0.00 0.00 79 1015.1
20260509160616 24 122 1.6 11.3 0.00 0.00 0.00 78 1014.9
20260509160111 24 147 1.6 4.8 0.00 0.00 0.00 80 1014.7
20260509155608 25 134 4.8 6.4 0.00 0.00 0.00 79 1014.8
20260509155105 25 134 0.0 6.4 0.00 0.00 0.00 79 1014.6
20260509154600 25 80 1.6 6.4 0.00 0.00 0.00 80 1014.7
20260509154058 24 125 0.0 0.0 0.00 0.00 0.00 82 1014.8
20260509153554 23 124 3.2 3.2 0.00 0.00 0.00 83 1015.0
20260509153051 23 187 0.0 3.2 0.00 0.00 0.00 85 1014.9
20260509152548 23 173 3.2 4.8 0.00 0.00 0.00 85 1015.3
20260509152045 23 137 1.6 1.6 0.00 0.00 0.00 86 1015.4
20260509151541 23 203 0.0 4.8 0.00 0.00 0.00 87 1015.4
20260509151039 23 169 1.6 3.2 0.00 0.00 0.00 87 1015.5
20260509150536 22 180 0.0 3.2 0.00 0.00 0.00 87 1015.6
20260509150035 22 196 3.2 4.8 0.00 0.00 0.00 87 1015.5
20260509145530 23 156 1.6 4.8 0.00 0.00 0.00 87 1015.6
20260509145025 23 178 0.0 1.6 0.00 0.00 0.00 87 1015.5
20260509144522 23 142 1.6 3.2 0.00 0.00 0.00 87 1015.5
20260509144020 23 170 1.6 3.2 0.00 0.00 0.00 87 1015.6
20260509143516 23 211 0.0 0.0 0.00 0.00 0.00 87 1015.6
20260509143014 23 189 0.0 1.6 0.00 0.00 0.00 87 1015.2
20260509142510 23 278 0.0 0.0 0.00 0.00 0.00 87 1015.3
20260509142006 23 289 0.0 0.0 0.00 0.00 0.00 87 1015.2
20260509141503 23 148 3.2 3.2 0.00 0.00 0.00 87 1015.1
20260509140959 22 171 0.0 1.6 0.00 0.00 0.00 87 1014.9
20260509140455 23 142 3.2 3.2 0.00 0.00 0.00 87 1014.8
20260509135954 23 167 0.0 0.0 0.00 0.00 0.00 87 1015.0
20260509135450 22 188 0.0 0.0 0.00 0.00 0.00 87 1015.1
20260509134948 22 175 3.2 3.2 0.00 0.00 0.00 87 1015.1
20260509134445 22 148 0.0 0.0 0.00 0.00 0.00 87 1014.9
20260509133943 22 155 0.0 0.0 0.00 0.00 0.00 86 1015.0
20260509133439 22 196 0.0 0.0 0.00 0.00 0.00 86 1015.0
20260509132937 22 234 0.0 0.0 0.00 0.00 0.00 87 1015.2
20260509132435 22 186 0.0 0.0 0.00 0.00 0.00 87 1015.2
20260509131932 22 187 0.0 0.0 0.00 0.00 0.00 87 1015.2
20260509131430 22 274 0.0 0.0 0.00 0.00 0.00 87 1015.4
20260509130926 22 274 0.0 0.0 0.00 0.00 0.00 87 1015.5
20260509130421 22 273 0.0 0.0 0.00 0.00 0.00 87 1015.5
20260509125918 22 273 0.0 0.0 0.00 0.00 0.00 87 1015.6
20260509125415 22 274 0.0 0.0 0.00 0.00 0.00 86 1015.5
20260509124910 22 275 0.0 0.0 0.00 0.00 0.00 87 1015.3
20260509124408 21 276 0.0 0.0 0.00 0.00 0.00 87 1015.2
20260509123905 21 277 0.0 0.0 0.00 0.00 0.00 89 1015.5
20260509123402 21 315 0.0 0.0 0.00 0.00 0.00 89 1015.6
20260509122858 21 281 0.0 0.0 0.00 0.00 0.00 90 1015.6
20260509122355 20 233 0.0 0.0 0.00 0.00 0.00 91 1015.5
20260509121852 20 224 0.0 0.0 0.00 0.00 0.00 92 1015.3
20260509121349 20 238 0.0 0.0 0.00 0.00 0.00 93 1015.5
20260509120847 20 231 0.0 0.0 0.00 0.00 0.00 94 1015.4
20260509120345 19 253 0.0 0.0 0.00 0.00 0.00 95 1015.3
20260509115843 19 250 0.0 0.0 0.00 0.00 0.00 96 1015.3
20260509115339 18 274 0.0 0.0 0.00 0.00 0.00 97 1015.1
20260509114837 18 274 0.0 0.0 0.00 0.00 0.00 97 1015.3
20260509114336 18 274 0.0 0.0 0.00 0.00 0.00 97 1015.0
20260509113835 18 274 0.0 0.0 0.00 0.00 0.00 97 1015.0
20260509113331 18 274 0.0 0.0 0.00 0.00 0.00 97 1015.1
20260509112828 18 274 0.0 0.0 0.00 0.00 0.00 97 1014.9
20260509112325 18 274 0.0 0.0 0.00 0.00 0.00 97 1014.9
20260509111822 18 274 0.0 0.0 0.00 0.00 0.00 97 1015.0
20260509111319 18 274 0.0 0.0 0.00 0.00 0.00 97 1015.1
20260509110817 18 274 0.0 0.0 0.00 0.00 0.00 97 1014.9
20260509110313 17 274 0.0 0.0 0.00 0.00 0.00 97 1014.8
20260509105811 17 275 0.0 0.0 0.00 0.00 0.00 96 1014.8
20260509105309 17 275 0.0 0.0 0.00 0.00 0.00 96 1014.8
20260509104805 17 275 0.0 0.0 0.00 0.00 0.00 96 1014.5
20260509104302 17 275 0.0 0.0 0.00 0.00 0.00 96 1014.4
20260509103800 17 275 0.0 0.0 0.00 0.00 0.00 96 1014.5
20260509103257 17 275 0.0 0.0 0.00 0.00 0.00 96 1014.5
20260509102755 17 275 0.0 0.0 0.00 0.00 0.00 96 1014.3
20260509102252 17 275 0.0 0.0 0.00 0.00 0.00 96 1014.4
20260509101748 18 275 0.0 0.0 0.00 0.00 0.00 95 1014.5
20260509101244 18 275 0.0 0.0 0.00 0.00 0.00 95 1014.3
20260509100742 18 275 0.0 0.0 0.00 0.00 0.00 95 1014.2
20260509100240 18 275 0.0 0.0 0.00 0.00 0.00 95 1014.1
20260509095736 18 275 0.0 0.0 0.00 0.00 0.00 95 1014.5
20260509095233 18 275 0.0 0.0 0.00 0.00 0.00 95 1014.5
20260509094730 18 275 0.0 0.0 0.00 0.00 0.00 95 1014.1
20260509094227 18 275 0.0 0.0 0.00 0.00 0.00 95 1014.2
20260509093725 18 275 0.0 0.0 0.00 0.00 0.00 95 1014.4
20260509093222 18 275 0.0 0.0 0.00 0.00 0.00 94 1014.2
20260509092720 18 275 0.0 0.0 0.00 0.00 0.00 94 1014.3
20260509092218 18 275 0.0 0.0 0.00 0.00 0.00 94 1014.5
20260509091716 18 275 0.0 0.0 0.00 0.00 0.00 94 1014.7
20260509091211 18 275 0.0 0.0 0.00 0.00 0.00 94 1014.6
20260509090710 18 275 0.0 0.0 0.00 0.00 0.00 94 1014.7
20260509090206 18 277 0.0 0.0 0.00 0.00 0.00 94 1014.3
20260509085704 18 276 0.0 0.0 0.00 0.00 0.00 93 1014.8
20260509085200 18 276 0.0 0.0 0.00 0.00 0.00 93 1014.6
20260509084657 18 278 0.0 0.0 0.00 0.00 0.00 93 1014.3
20260509084154 18 278 0.0 0.0 0.00 0.00 0.00 93 1014.5
20260509083652 18 268 0.0 0.0 0.00 0.00 0.00 94 1014.7
20260509083149 18 260 0.0 0.0 0.00 0.00 0.00 94 1014.9
20260509082646 18 256 0.0 0.0 0.00 0.00 0.00 93 1014.9
20260509082142 18 256 0.0 0.0 0.00 0.00 0.00 94 1014.9
20260509081639 18 257 0.0 0.0 0.00 0.00 0.00 93 1014.7
20260509081136 18 241 0.0 0.0 0.00 0.00 0.00 93 1014.7
20260509080635 18 238 0.0 0.0 0.00 0.00 0.00 93 1015.0
20260509080132 18 238 0.0 0.0 0.00 0.00 0.00 93 1014.9
20260509075630 18 238 0.0 0.0 0.00 0.00 0.00 92 1015.0
20260509075128 18 235 0.0 0.0 0.00 0.00 0.00 92 1015.1
20260509074624 18 232 0.0 0.0 0.00 0.00 0.00 92 1015.4
20260509074120 18 232 0.0 0.0 0.00 0.00 0.00 92 1015.3
20260509073617 18 232 0.0 0.0 0.00 0.00 0.00 92 1015.0
20260509073114 18 234 0.0 0.0 0.00 0.00 0.00 92 1014.7
20260509072611 18 236 0.0 0.0 0.00 0.00 0.00 92 1014.4
20260509072107 18 267 0.0 0.0 0.00 0.00 0.00 92 1014.2
20260509071604 18 302 0.0 0.0 0.00 0.00 0.00 91 1014.6
20260509071101 18 302 0.0 0.0 0.00 0.00 0.00 91 1014.6
20260509070559 19 303 0.0 0.0 0.00 0.00 0.00 91 1014.9
20260509070055 19 303 0.0 0.0 0.00 0.00 0.00 90 1014.9
20260509065550 19 56 0.0 0.0 0.00 0.00 0.00 90 1015.0
20260509065046 19 37 0.0 0.0 0.00 0.00 0.00 89 1015.0
20260509064544 19 304 0.0 0.0 0.00 0.00 0.00 89 1015.2
20260509064042 20 272 0.0 1.6 0.00 0.00 0.00 89 1015.5
20260509063537 20 255 0.0 0.0 0.00 0.00 0.00 89 1015.8
20260509063035 19 302 0.0 0.0 0.00 0.00 0.00 89 1015.6
20260509062532 19 249 0.0 0.0 0.00 0.00 0.00 88 1015.5
20260509062030 19 316 0.0 0.0 0.00 0.00 0.00 88 1015.0
20260509061526 19 252 0.0 0.0 0.00 0.00 0.00 88 1015.3
20260509061024 19 270 0.0 0.0 0.00 0.00 0.00 88 1015.6
20260509060521 19 270 0.0 0.0 0.00 0.00 0.00 87 1015.8
20260509060017 19 253 0.0 0.0 0.00 0.00 0.00 87 1016.1
20260509055512 19 212 0.0 0.0 0.00 0.00 0.00 88 1015.9
20260509055009 18 212 0.0 0.0 0.00 0.00 0.00 88 1015.6
20260509054505 18 213 0.0 0.0 0.00 0.00 0.00 89 1015.5
20260509054003 18 274 0.0 0.0 0.00 0.00 0.00 89 1015.8
20260509053501 18 351 0.0 0.0 0.00 0.00 0.00 89 1015.7
20260509052958 18 322 0.0 0.0 0.00 0.00 0.00 89 1015.8
20260509052456 18 312 0.0 0.0 0.00 0.00 0.00 88 1016.3
20260509051954 18 310 0.0 0.0 0.00 0.00 0.00 88 1016.5
20260509051451 18 302 0.0 0.0 0.00 0.00 0.00 87 1016.8
20260509050948 18 245 0.0 0.0 0.00 0.00 0.00 87 1017.2
20260509050444 18 245 0.0 0.0 0.00 0.00 0.00 87 1017.0
20260509045941 18 245 0.0 0.0 0.00 0.00 0.00 87 1017.0
20260509045438 18 245 0.0 0.0 0.00 0.00 0.00 87 1017.1
20260509044935 18 245 0.0 0.0 0.00 0.00 0.00 87 1017.1
20260509044433 18 245 0.0 0.0 0.00 0.00 0.00 86 1017.3
20260509043930 18 245 0.0 0.0 0.00 0.00 0.00 87 1016.8
20260509043426 18 245 0.0 1.6 0.00 0.00 0.00 88 1016.6
20260509042921 18 270 0.0 0.0 0.00 0.00 0.00 88 1016.3
20260509042419 18 270 0.0 0.0 0.00 0.00 0.00 88 1016.8
20260509041915 18 270 0.0 0.0 0.00 0.00 0.00 88 1017.1
20260509041412 18 270 0.0 0.0 0.00 0.00 0.00 88 1017.4
20260509040910 18 270 0.0 0.0 0.00 0.00 0.00 87 1017.4
20260509040408 18 270 0.0 0.0 0.00 0.00 0.00 87 1017.5
20260509035904 18 270 0.0 0.0 0.00 0.00 0.00 87 1017.6
20260509035401 18 270 0.0 0.0 0.00 0.00 0.00 87 1017.8
20260509034857 18 270 0.0 0.0 0.00 0.00 0.00 87 1017.7
20260509034355 18 270 0.0 0.0 0.00 0.00 0.00 87 1017.6
20260509033852 18 270 0.0 0.0 0.00 0.00 0.00 87 1017.8
20260509033350 18 270 0.0 0.0 0.00 0.00 0.00 87 1017.7
20260509032846 18 270 0.0 0.0 0.00 0.00 0.00 86 1017.7
20260509032343 18 270 0.0 0.0 0.00 0.00 0.00 86 1017.6
20260509031842 18 270 0.0 0.0 0.00 0.00 0.00 86 1017.7
20260509031338 18 270 0.0 0.0 0.00 0.00 0.00 86 1017.8
20260509030836 18 270 0.0 0.0 0.00 0.00 0.00 86 1017.8
20260509030334 18 270 0.0 0.0 0.00 0.00 0.00 85 1017.9
20260509025830 18 270 0.0 0.0 0.00 0.00 0.00 85 1018.1
20260509025325 18 270 0.0 0.0 0.00 0.00 0.00 85 1018.0
20260509024821 18 283 0.0 0.0 0.00 0.00 0.00 85 1017.8
20260509024318 18 283 0.0 0.0 0.00 0.00 0.00 85 1017.7
20260509023815 18 283 0.0 0.0 0.00 0.00 0.00 85 1017.5
20260509023312 18 283 0.0 0.0 0.00 0.00 0.00 85 1017.6
20260509022808 18 283 0.0 0.0 0.00 0.00 0.00 85 1017.4
20260509022307 18 283 0.0 0.0 0.00 0.00 0.00 85 1017.5
20260509021803 18 283 0.0 0.0 0.00 0.00 0.00 85 1017.6
20260509021300 18 283 0.0 0.0 0.00 0.00 0.00 84 1017.5
20260509020757 18 283 0.0 0.0 0.00 0.00 0.00 84 1017.5
20260509020255 18 283 0.0 0.0 0.00 0.00 0.00 84 1017.4
20260509015753 18 283 0.0 0.0 0.00 0.00 0.00 84 1017.6
20260509015251 18 283 0.0 0.0 0.00 0.00 0.00 83 1017.6
20260509014747 18 284 0.0 0.0 0.00 0.00 0.00 84 1017.4
20260509014244 18 284 0.0 0.0 0.00 0.00 0.00 83 1017.4
20260509013735 18 283 0.0 0.0 0.00 0.00 0.00 83 1017.3
20260509013231 18 284 0.0 0.0 0.00 0.00 0.00 83 1017.3
20260509012728 18 288 0.0 0.0 0.00 0.00 0.00 83 1017.2
20260509012224 18 288 0.0 0.0 0.00 0.00 0.00 83 1017.4
20260509011722 18 289 0.0 0.0 0.00 0.00 0.00 82 1017.2
20260509011219 18 301 0.0 0.0 0.00 0.00 0.00 82 1017.3
20260509010716 18 301 0.0 0.0 0.00 0.00 0.00 82 1017.4
20260509010207 18 302 0.0 0.0 0.00 0.00 0.00 82 1017.5
20260509005705 18 359 0.0 0.0 0.00 0.00 0.00 81 1017.4
20260509005202 18 0 0.0 0.0 0.00 0.00 0.00 81 1017.1
20260509004656 18 139 0.0 0.0 0.00 0.00 0.00 81 1017.2
20260509004154 18 301 0.0 0.0 0.00 0.00 0.00 81 1017.1
20260509003653 18 301 0.0 0.0 0.00 0.00 0.00 80 1017.0
20260509003150 18 301 0.0 0.0 0.00 0.00 0.00 80 1017.0
20260509002647 18 302 0.0 0.0 0.00 0.00 0.00 80 1016.8
20260509002144 18 302 0.0 0.0 0.00 0.00 0.00 79 1016.7
20260509001642 18 307 0.0 1.6 0.00 0.00 0.00 79 1016.9
20260509001137 18 23 0.0 0.0 0.00 0.00 0.00 79 1017.1
20260509000636 18 314 0.0 0.0 0.00 0.00 0.00 79 1017.1
20260509000132 18 324 0.0 0.0 0.00 0.00 0.00 79 1016.8
20260508235630 18 32 1.6 1.6 0.00 0.00 0.00 79 1016.7
20260508235126 18 304 0.0 0.0 0.00 0.00 0.00 78 1016.8
20260508234623 18 289 0.0 0.0 0.00 0.00 0.00 79 1016.6
20260508234120 18 321 0.0 0.0 0.00 0.00 0.00 78 1016.6
20260508233619 18 293 0.0 0.0 0.00 0.00 0.00 78 1017.0
20260508233116 18 305 0.0 0.0 0.00 0.00 0.00 78 1016.9
20260508232613 18 315 0.0 0.0 0.00 0.00 0.00 78 1016.8
20260508232110 18 273 0.0 0.0 0.00 0.00 0.00 78 1016.9
20260508231608 18 340 0.0 0.0 0.00 0.00 0.00 78 1017.0
20260508231104 19 281 0.0 0.0 0.00 0.00 0.00 77 1016.9
20260508230601 19 281 0.0 0.0 0.00 0.00 0.00 77 1017.1
20260508230057 19 297 0.0 0.0 0.00 0.00 0.00 77 1016.8
20260508225555 19 304 0.0 1.6 0.00 0.00 0.00 76 1016.8
20260508225052 19 290 0.0 0.0 0.00 0.00 0.00 76 1016.6
20260508224550 19 336 0.0 0.0 0.00 0.00 0.00 77 1016.6
20260508224047 19 345 0.0 0.0 0.00 0.00 0.00 77 1016.6
20260508223544 19 315 0.0 0.0 0.00 0.00 0.00 77 1016.7
20260508223041 19 312 0.0 0.0 0.00 0.00 0.00 76 1016.6
20260508222539 19 292 0.0 1.6 0.00 0.00 0.00 76 1016.6
20260508222036 19 7 0.0 3.2 0.00 0.00 0.00 74 1016.7
20260508221532 19 316 0.0 1.6 0.00 0.00 0.00 74 1017.1
20260508221027 19 258 0.0 0.0 0.00 0.00 0.00 74 1016.8
20260508220525 19 301 0.0 0.0 0.00 0.00 0.00 74 1016.7
20260508220021 19 338 0.0 1.6 0.00 0.00 0.00 73 1016.8
20260508215518 19 294 0.0 1.6 0.00 0.00 0.00 72 1016.9
20260508215015 20 14 3.2 3.2 0.00 0.00 0.00 72 1016.8
20260508214512 20 304 1.6 1.6 0.00 0.00 0.00 73 1016.8
20260508214008 20 304 0.0 3.2 0.00 0.00 0.00 73 1016.8
20260508213506 20 227 1.6 3.2 0.00 0.00 0.00 72 1017.0
20260508213001 20 24 3.2 3.2 0.00 0.00 0.00 72 1017.0
20260508212458 20 328 0.0 1.6 0.00 0.00 0.00 72 1017.1
20260508211954 20 340 0.0 1.6 0.00 0.00 0.00 72 1017.2
20260508211450 20 354 0.0 3.2 0.00 0.00 0.00 73 1017.0
20260508210947 20 50 1.6 1.6 0.00 0.00 0.00 72 1016.8
20260508210443 20 293 0.0 0.0 0.00 0.00 0.00 71 1016.8
20260508205939 20 292 0.0 1.6 0.00 0.00 0.00 72 1016.7
20260508205437 20 335 1.6 3.2 0.00 0.00 0.00 70 1016.8
20260508204933 20 311 1.6 3.2 0.00 0.00 0.00 71 1017.0
20260508204431 20 318 0.0 3.2 0.00 0.00 0.00 70 1016.9
20260508203926 20 34 0.0 3.2 0.00 0.00 0.00 71 1016.7
20260508203422 20 39 1.6 4.8 0.00 0.00 0.00 70 1016.8
20260508202918 20 318 0.0 3.2 0.00 0.00 0.00 69 1016.8
20260508202416 20 88 1.6 4.8 0.00 0.00 0.00 69 1016.7
20260508201913 20 302 0.0 4.8 0.00 0.00 0.00 70 1017.1
20260508201409 21 6 1.6 6.4 0.00 0.00 0.00 67 1017.1
20260508200906 21 312 0.0 4.8 0.00 0.00 0.00 67 1017.2
20260508200403 21 30 1.6 3.2 0.00 0.00 0.00 67 1017.5
20260508195858 21 169 1.6 4.8 0.00 0.00 0.00 67 1017.3
20260508195355 21 67 6.4 6.4 0.00 0.00 0.00 66 1017.4
20260508194851 21 323 0.0 4.8 0.00 0.00 0.00 66 1017.6
20260508194349 22 16 1.6 3.2 0.00 0.00 0.00 63 1017.4
20260508193846 21 308 1.6 6.4 0.00 0.00 0.00 66 1017.4
20260508193342 21 324 3.2 4.8 0.00 0.00 0.00 64 1017.2
20260508192838 21 315 3.2 4.8 0.00 0.00 0.00 66 1017.5
20260508192336 21 58 1.6 4.8 0.00 0.00 0.00 66 1017.5
20260508191833 21 53 3.2 3.2 0.00 0.00 0.00 67 1017.6
20260508191330 21 358 0.0 4.8 0.00 0.00 0.00 65 1017.5
20260508190827 21 330 1.6 4.8 0.00 0.00 0.00 66 1017.7
20260508190324 21 61 1.6 6.4 0.00 0.00 0.00 63 1017.6
20260508185820 22 305 1.6 6.4 0.00 0.00 0.00 63 1017.9
20260508185318 22 17 1.6 6.4 0.00 0.00 0.00 63 1017.8
20260508184815 22 11 3.2 6.4 0.00 0.00 0.00 61 1017.9
20260508184311 22 264 0.0 4.8 0.00 0.00 0.00 61 1017.9
20260508183808 21 66 1.6 6.4 0.00 0.00 0.00 65 1017.8
20260508183305 22 52 1.6 6.4 0.00 0.00 0.00 62 1017.7
20260508182755 22 313 1.6 9.7 0.00 0.00 0.00 63 1017.7
20260508182252 22 18 4.8 9.7 0.00 0.00 0.00 60 1018.0
20260508181748 22 325 3.2 9.7 0.00 0.00 0.00 58 1018.0
20260508181245 22 212 3.2 4.8 0.00 0.00 0.00 59 1018.1
20260508180742 22 291 1.6 3.2 0.00 0.00 0.00 60 1018.2
20260508180239 22 237 1.6 6.4 0.00 0.00 0.00 59 1018.2
20260508175735 22 24 3.2 9.7 0.00 0.00 0.00 59 1018.3
20260508175231 23 333 4.8 6.4 0.00 0.00 0.00 57 1018.1
20260508174730 23 8 1.6 4.8 0.00 0.00 0.00 56 1018.3
20260508174227 22 334 1.6 3.2 0.00 0.00 0.00 58 1018.2
20260508173722 22 23 6.4 6.4 0.00 0.00 0.00 59 1018.3
20260508173219 22 15 3.2 6.4 0.00 0.00 0.00 57 1018.5
20260508172716 23 330 0.0 4.8 0.00 0.00 0.00 58 1018.5
20260508172213 23 257 1.6 4.8 0.00 0.00 0.00 58 1018.3
20260508171709 23 21 1.6 6.4 0.00 0.00 0.00 59 1018.4
20260508171206 23 34 4.8 6.4 0.00 0.00 0.00 56 1018.6
20260508170703 22 47 4.8 11.3 0.00 0.00 0.00 59 1018.5
20260508170201 22 336 3.2 4.8 0.00 0.00 0.00 60 1018.4
20260508165657 23 325 4.8 6.4 0.00 0.00 0.00 57 1018.3
20260508165154 23 341 3.2 6.4 0.00 0.00 0.00 55 1018.4
20260508164651 22 308 3.2 6.4 0.00 0.00 0.00 57 1018.6
20260508164147 22 320 1.6 4.8 0.00 0.00 0.00 55 1018.8
20260508163645 22 344 4.8 4.8 0.00 0.00 0.00 55 1018.5
20260508163143 23 262 0.0 4.8 0.00 0.00 0.00 55 1018.8
20260508162638 22 175 1.6 4.8 0.00 0.00 0.00 52 1018.8